TimePST,TemperatureF,Dew PointF,Humidity,Sea Level PressureIn,VisibilityMPH,Wind Direction,Wind SpeedMPH,Gust SpeedMPH,PrecipitationIn,Events,Conditions,WindDirDegrees,DateUTC
12:52 AM,64.0,54.0,70,29.78,9.0,SW,4.6,-,N/A,,Mostly Cloudy,220,2013-11-16 08:52:00
1:52 AM,64.0,53.1,67,29.79,9.0,SSW,5.8,-,N/A,,Mostly Cloudy,210,2013-11-16 09:52:00
2:44 AM,64.0,53.1,67,29.79,9.0,WSW,8.1,-,0.00,Rain,Light Rain,240,2013-11-16 10:44:00
2:52 AM,64.9,53.1,65,29.79,9.0,SW,5.8,-,0.00,Rain,Light Rain,220,2013-11-16 10:52:00
3:52 AM,63.0,51.1,65,29.80,10.0,WSW,10.4,-,0.01,,Mostly Cloudy,240,2013-11-16 11:52:00
4:52 AM,64.0,50.0,60,29.82,10.0,WSW,8.1,-,N/A,,Mostly Cloudy,240,2013-11-16 12:52:00
5:52 AM,64.0,50.0,60,29.83,10.0,WSW,9.2,-,N/A,,Mostly Cloudy,250,2013-11-16 13:52:00
6:52 AM,63.0,46.0,54,29.83,10.0,SW,8.1,-,N/A,,Scattered Clouds,220,2013-11-16 14:52:00
7:52 AM,64.9,48.0,54,29.86,10.0,SW,8.1,-,N/A,,Mostly Cloudy,220,2013-11-16 15:52:00
8:52 AM,66.0,46.9,50,29.88,10.0,SSW,9.2,-,N/A,,Mostly Cloudy,200,2013-11-16 16:52:00
9:52 AM,68.0,46.9,47,29.89,10.0,South,8.1,-,N/A,,Mostly Cloudy,170,2013-11-16 17:52:00
10:52 AM,70.0,48.0,46,29.89,10.0,SSE,9.2,-,N/A,,Mostly Cloudy,160,2013-11-16 18:52:00
11:52 AM,70.0,48.9,47,29.86,10.0,South,9.2,-,N/A,,Mostly Cloudy,170,2013-11-16 19:52:00
12:52 PM,69.1,53.1,57,29.86,10.0,SW,11.5,-,N/A,,Mostly Cloudy,220,2013-11-16 20:52:00
1:52 PM,66.9,48.9,52,29.85,10.0,SSW,10.4,-,N/A,,Mostly Cloudy,210,2013-11-16 21:52:00
2:52 PM,66.9,48.9,52,29.86,10.0,SSW,6.9,-,N/A,,Mostly Cloudy,210,2013-11-16 22:52:00
3:52 PM,66.0,51.1,59,29.87,10.0,SW,8.1,-,N/A,,Mostly Cloudy,230,2013-11-16 23:52:00
4:52 PM,66.0,52.0,60,29.87,10.0,SW,6.9,-,N/A,,Mostly Cloudy,220,2013-11-17 00:52:00
5:52 PM,64.9,51.1,61,29.88,10.0,SW,4.6,-,N/A,,Mostly Cloudy,220,2013-11-17 01:52:00
6:52 PM,66.0,51.1,59,29.90,10.0,SW,3.5,-,N/A,,Mostly Cloudy,220,2013-11-17 02:52:00
7:52 PM,64.9,52.0,63,29.91,10.0,South,4.6,-,N/A,,Overcast,190,2013-11-17 03:52:00
8:52 PM,66.0,53.1,63,29.93,9.0,Calm,Calm,-,N/A,,Overcast,0,2013-11-17 04:52:00
9:52 PM,64.9,53.1,65,29.94,10.0,SE,6.9,-,N/A,,Overcast,130,2013-11-17 05:52:00
10:52 PM,64.9,52.0,63,29.94,10.0,SE,6.9,-,N/A,,Overcast,140,2013-11-17 06:52:00
11:52 PM,64.0,52.0,65,29.95,10.0,SSE,6.9,-,N/A,,Mostly Cloudy,160,2013-11-17 07:52:00